| time (UTC) | temp F | wind direction | speed knots | gust knots | rain 1hr in | rain 24hr in | rain mn in | humidity % | barometer mb |
| 20260508031121 | 48 | 338 | 0.0 | 0.0 | 0.00 | 0.15 | 0.15 | 94 | 1007.6 |
| 20260508030123 | 48 | 270 | 0.0 | 0.0 | 0.00 | 0.15 | 0.15 | 93 | 1007.6 |
| 20260508025122 | 48 | 99 | 0.0 | 1.7 | 0.00 | 0.16 | 0.15 | 93 | 1007.6 |
| 20260508024123 | 48 | 113 | 0.0 | 0.0 | 0.00 | 0.16 | 0.15 | 90 | 1007.7 |
| 20260508023122 | 48 | 315 | 0.0 | 0.0 | 0.00 | 0.16 | 0.15 | 88 | 1007.6 |
| 20260508022123 | 49 | 113 | 0.0 | 0.0 | 0.00 | 0.16 | 0.15 | 86 | 1007.6 |
| 20260508021145 | 49 | 73 | 0.0 | 0.9 | 0.00 | 0.17 | 0.15 | 86 | 1007.5 |
| 20260508020123 | 50 | 102 | 0.0 | 1.7 | 0.00 | 0.18 | 0.15 | 84 | 1007.5 |
| 20260508015148 | 51 | 135 | 0.0 | 0.0 | 0.00 | 0.18 | 0.15 | 81 | 1007.5 |
| 20260508014128 | 51 | 237 | 0.0 | 1.7 | 0.00 | 0.18 | 0.15 | 81 | 1007.6 |
| 20260508013122 | 52 | 204 | 0.9 | 1.7 | 0.00 | 0.20 | 0.15 | 81 | 1007.5 |
| 20260508012142 | 53 | 212 | 0.9 | 2.6 | 0.00 | 0.20 | 0.15 | 79 | 1007.5 |
| 20260508011123 | 53 | 110 | 0.9 | 2.6 | 0.00 | 0.20 | 0.15 | 77 | 1007.2 |
| 20260508010121 | 54 | 212 | 1.7 | 3.5 | 0.00 | 0.20 | 0.15 | 75 | 1007.1 |
| 20260508005143 | 55 | 190 | 0.9 | 2.6 | 0.00 | 0.20 | 0.15 | 73 | 1007.1 |
| 20260508004122 | 55 | 266 | 0.9 | 1.7 | 0.00 | 0.20 | 0.15 | 69 | 1006.9 |
| 20260508003123 | 56 | 257 | 0.0 | 2.6 | 0.00 | 0.20 | 0.15 | 56 | 1006.6 |
| 20260508002143 | 57 | 23 | 0.0 | 0.9 | 0.00 | 0.20 | 0.15 | 53 | 1006.5 |
| 20260508001122 | 58 | 73 | 0.9 | 1.7 | 0.00 | 0.20 | 0.15 | 48 | 1006.4 |
| 20260508000121 | 58 | 38 | 1.7 | 2.6 | 0.00 | 0.20 | 0.15 | 47 | 1006.4 |
| 20260507235122 | 59 | 320 | 1.7 | 2.6 | 0.00 | 0.20 | 0.15 | 46 | 1006.4 |
| 20260507234121 | 60 | 320 | 2.6 | 4.3 | 0.00 | 0.20 | 0.15 | 44 | 1006.1 |
| 20260507233121 | 61 | 288 | 3.5 | 7.0 | 0.00 | 0.20 | 0.15 | 43 | 1006.1 |
| 20260507232121 | 61 | 335 | 3.5 | 7.0 | 0.00 | 0.20 | 0.15 | 43 | 1006.0 |
| 20260507231122 | 62 | 307 | 3.5 | 5.2 | 0.00 | 0.20 | 0.15 | 42 | 1005.9 |
| 20260507230122 | 62 | 279 | 3.5 | 6.1 | 0.00 | 0.20 | 0.15 | 42 | 1005.9 |
| 20260507225122 | 62 | 323 | 3.5 | 5.2 | 0.00 | 0.20 | 0.15 | 42 | 1005.9 |
| 20260507224126 | 62 | 308 | 4.3 | 7.8 | 0.00 | 0.20 | 0.15 | 41 | 1005.8 |
| 20260507223121 | 63 | 297 | 4.3 | 7.0 | 0.00 | 0.20 | 0.15 | 41 | 1005.9 |
| 20260507222122 | 63 | 312 | 3.5 | 7.0 | 0.00 | 0.20 | 0.15 | 40 | 1005.9 |
| 20260507221121 | 63 | 296 | 4.3 | 8.7 | 0.00 | 0.20 | 0.15 | 39 | 1005.9 |
| 20260507220121 | 64 | 300 | 4.3 | 7.8 | 0.00 | 0.20 | 0.15 | 39 | 1005.8 |
| 20260507215125 | 65 | 298 | 3.5 | 9.6 | 0.00 | 0.20 | 0.15 | 39 | 1005.8 |
| 20260507214122 | 65 | 318 | 4.3 | 8.7 | 0.00 | 0.20 | 0.15 | 38 | 1005.7 |
| 20260507213123 | 66 | 328 | 5.2 | 9.6 | 0.00 | 0.20 | 0.15 | 39 | 1005.6 |
| 20260507212126 | 67 | 333 | 5.2 | 8.7 | 0.00 | 0.20 | 0.15 | 37 | 1005.6 |
| 20260507211122 | 68 | 337 | 4.3 | 8.7 | 0.00 | 0.20 | 0.15 | 36 | 1005.5 |
| 20260507210121 | 68 | 299 | 4.3 | 7.8 | 0.00 | 0.20 | 0.15 | 35 | 1005.7 |
| 20260507205121 | 69 | 270 | 5.2 | 10.4 | 0.00 | 0.20 | 0.15 | 35 | 1005.7 |
| 20260507204131 | 69 | 309 | 4.3 | 6.1 | 0.00 | 0.20 | 0.15 | 36 | 1005.6 |
| 20260507204122 | 69 | 311 | 4.3 | 6.1 | 0.00 | 0.20 | 0.15 | 36 | 1005.6 |
| 20260507203122 | 68 | 12 | 3.5 | 5.2 | 0.00 | 0.20 | 0.15 | 36 | 1005.7 |
| 20260507202122 | 70 | 28 | 3.5 | 5.2 | 0.00 | 0.20 | 0.15 | 36 | 1005.8 |
| 20260507201121 | 69 | 293 | 3.5 | 8.7 | 0.00 | 0.20 | 0.15 | 36 | 1005.6 |
| 20260507200124 | 69 | 313 | 4.3 | 6.1 | 0.00 | 0.20 | 0.15 | 37 | 1005.8 |
| 20260507195121 | 68 | 336 | 3.5 | 6.1 | 0.00 | 0.20 | 0.15 | 37 | 1005.8 |
| 20260507194121 | 68 | 35 | 3.5 | 6.1 | 0.00 | 0.20 | 0.15 | 37 | 1005.9 |
| 20260507193121 | 69 | 317 | 4.3 | 8.7 | 0.00 | 0.21 | 0.15 | 37 | 1006.0 |
| 20260507192121 | 68 | 355 | 3.5 | 7.0 | 0.00 | 0.22 | 0.15 | 37 | 1006.1 |
| 20260507191124 | 68 | 309 | 3.5 | 7.0 | 0.00 | 0.22 | 0.15 | 37 | 1006.2 |
| 20260507190121 | 69 | 103 | 3.5 | 6.1 | 0.00 | 0.22 | 0.15 | 37 | 1006.2 |
| 20260507185148 | 69 | 328 | 4.3 | 7.0 | 0.00 | 0.22 | 0.15 | 35 | 1006.4 |
| 20260507184121 | 67 | 74 | 4.3 | 11.3 | 0.00 | 0.22 | 0.15 | 38 | 1006.5 |
| 20260507183123 | 68 | 0 | 3.5 | 7.0 | 0.00 | 0.22 | 0.15 | 39 | 1006.6 |
| 20260507182122 | 68 | 302 | 4.3 | 8.7 | 0.00 | 0.22 | 0.15 | 37 | 1006.8 |
| 20260507181144 | 67 | 329 | 4.3 | 8.7 | 0.00 | 0.22 | 0.15 | 39 | 1007.1 |
| 20260507180122 | 67 | 297 | 3.5 | 7.0 | 0.00 | 0.22 | 0.15 | 39 | 1007.1 |
| 20260507175122 | 67 | 300 | 4.3 | 7.8 | 0.00 | 0.22 | 0.15 | 39 | 1007.2 |
| 20260507174122 | 67 | 326 | 2.6 | 5.2 | 0.00 | 0.22 | 0.15 | 41 | 1007.1 |
| 20260507173122 | 67 | 19 | 3.5 | 7.8 | 0.00 | 0.22 | 0.15 | 41 | 1007.2 |
| 20260507172144 | 66 | 29 | 3.5 | 5.2 | 0.00 | 0.23 | 0.15 | 43 | 1007.5 |
| 20260507171121 | 67 | 298 | 3.5 | 7.8 | 0.00 | 0.23 | 0.15 | 43 | 1007.6 |
| 20260507170121 | 66 | 302 | 4.3 | 7.8 | 0.00 | 0.23 | 0.15 | 44 | 1007.8 |
| 20260507165121 | 66 | 338 | 3.5 | 6.1 | 0.00 | 0.24 | 0.15 | 46 | 1007.8 |
| 20260507164124 | 66 | 310 | 3.5 | 7.0 | 0.00 | 0.24 | 0.15 | 50 | 1007.8 |
| 20260507163122 | 64 | 336 | 4.3 | 7.8 | 0.00 | 0.24 | 0.15 | 53 | 1008.1 |
| 20260507162144 | 65 | 302 | 3.5 | 8.7 | 0.00 | 0.24 | 0.15 | 53 | 1008.2 |
| 20260507161121 | 64 | 23 | 4.3 | 7.0 | 0.00 | 0.24 | 0.15 | 54 | 1008.5 |
| 20260507160121 | 66 | 329 | 2.6 | 7.8 | 0.00 | 0.24 | 0.15 | 55 | 1008.6 |
| 20260507155145 | 63 | 0 | 4.3 | 8.7 | 0.00 | 0.24 | 0.15 | 56 | 1008.6 |
| 20260507154122 | 63 | 337 | 3.5 | 6.1 | 0.00 | 0.24 | 0.15 | 60 | 1008.6 |
| 20260507153121 | 62 | 307 | 3.5 | 7.8 | 0.00 | 0.24 | 0.15 | 57 | 1008.8 |
| 20260507152121 | 62 | 322 | 3.5 | 7.8 | 0.00 | 0.24 | 0.15 | 60 | 1008.8 |
| 20260507151121 | 61 | 326 | 3.5 | 6.1 | 0.00 | 0.24 | 0.15 | 62 | 1008.9 |
| 20260507150121 | 60 | 321 | 2.6 | 5.2 | 0.00 | 0.24 | 0.15 | 67 | 1008.9 |
| 20260507145127 | 60 | 309 | 3.5 | 6.1 | 0.00 | 0.24 | 0.15 | 66 | 1009.1 |
| 20260507144123 | 60 | 314 | 3.5 | 6.1 | 0.00 | 0.24 | 0.15 | 68 | 1009.0 |
| 20260507143146 | 59 | 326 | 2.6 | 5.2 | 0.00 | 0.24 | 0.15 | 73 | 1008.9 |
| 20260507142124 | 58 | 314 | 2.6 | 5.2 | 0.00 | 0.24 | 0.15 | 78 | 1009.0 |
| 20260507141122 | 58 | 319 | 3.5 | 7.8 | 0.00 | 0.24 | 0.15 | 78 | 1009.0 |
| 20260507140122 | 57 | 336 | 2.6 | 5.2 | 0.00 | 0.24 | 0.15 | 83 | 1009.0 |
| 20260507135122 | 55 | 304 | 4.3 | 7.8 | 0.00 | 0.24 | 0.15 | 84 | 1009.0 |
| 20260507134122 | 56 | 316 | 3.5 | 7.0 | 0.00 | 0.24 | 0.15 | 80 | 1008.9 |
| 20260507133143 | 56 | 340 | 2.6 | 5.2 | 0.00 | 0.24 | 0.15 | 83 | 1009.0 |
| 20260507132121 | 55 | 235 | 2.6 | 3.5 | 0.00 | 0.24 | 0.15 | 87 | 1009.1 |
| 20260507131123 | 55 | 315 | 3.5 | 7.8 | 0.00 | 0.24 | 0.15 | 86 | 1009.2 |
| 20260507130126 | 54 | 317 | 4.3 | 7.0 | 0.00 | 0.24 | 0.15 | 88 | 1009.2 |
| 20260507125142 | 54 | 312 | 3.5 | 7.0 | 0.00 | 0.24 | 0.15 | 89 | 1009.1 |
| 20260507124121 | 52 | 323 | 2.6 | 6.1 | 0.00 | 0.24 | 0.15 | 94 | 1009.2 |
| 20260507123123 | 51 | 329 | 3.5 | 6.1 | 0.00 | 0.24 | 0.15 | 95 | 1009.1 |
| 20260507122123 | 51 | 307 | 3.5 | 6.1 | 0.00 | 0.24 | 0.15 | 95 | 1009.0 |
| 20260507121121 | 51 | 285 | 2.6 | 6.1 | 0.00 | 0.24 | 0.15 | 95 | 1008.9 |
| 20260507120129 | 51 | 302 | 2.6 | 5.2 | 0.00 | 0.24 | 0.15 | 95 | 1008.9 |
| 20260507115143 | 51 | 320 | 3.5 | 7.8 | 0.00 | 0.24 | 0.15 | 96 | 1008.7 |
| 20260507114121 | 51 | 287 | 2.6 | 5.2 | 0.00 | 0.24 | 0.15 | 98 | 1008.5 |
| 20260507113123 | 50 | 301 | 2.6 | 4.3 | 0.00 | 0.24 | 0.15 | 99 | 1008.6 |
| 20260507112121 | 50 | 321 | 1.7 | 4.3 | 0.00 | 0.24 | 0.15 | 99 | 1008.2 |
| 20260507111124 | 50 | 324 | 1.7 | 4.3 | 0.00 | 0.24 | 0.15 | 99 | 1008.2 |
| 20260507110123 | 50 | 305 | 3.5 | 5.2 | 0.00 | 0.24 | 0.15 | 99 | 1008.2 |
| 20260507105124 | 50 | 320 | 2.6 | 4.3 | 0.00 | 0.24 | 0.15 | 99 | 1008.2 |
| 20260507104125 | 49 | 315 | 3.5 | 6.1 | 0.00 | 0.24 | 0.15 | 99 | 1008.1 |
| 20260507103124 | 49 | 312 | 3.5 | 6.1 | 0.00 | 0.24 | 0.15 | 99 | 1008.0 |
| 20260507102121 | 49 | 295 | 2.6 | 6.1 | 0.00 | 0.24 | 0.15 | 99 | 1007.7 |
| 20260507101145 | 49 | 324 | 3.5 | 6.1 | 0.00 | 0.24 | 0.15 | 99 | 1007.5 |
| 20260507100147 | 49 | 306 | 3.5 | 5.2 | 0.00 | 0.24 | 0.15 | 99 | 1007.5 |
| 20260507095143 | 49 | 308 | 2.6 | 4.3 | 0.01 | 0.24 | 0.15 | 99 | 1007.5 |
| 20260507094145 | 49 | 324 | 2.6 | 5.2 | 0.01 | 0.24 | 0.15 | 99 | 1007.5 |
| 20260507093122 | 49 | 332 | 3.5 | 6.1 | 0.01 | 0.24 | 0.15 | 99 | 1007.2 |
| 20260507092121 | 49 | 312 | 2.6 | 4.3 | 0.01 | 0.24 | 0.15 | 99 | 1007.5 |
| 20260507091142 | 49 | 303 | 2.6 | 4.3 | 0.01 | 0.24 | 0.15 | 99 | 1007.4 |
| 20260507090121 | 49 | 309 | 3.5 | 7.0 | 0.01 | 0.24 | 0.15 | 99 | 1007.5 |
| 20260507085143 | 50 | 312 | 4.3 | 7.0 | 0.00 | 0.23 | 0.14 | 99 | 1007.5 |
| 20260507084125 | 50 | 331 | 4.3 | 7.8 | 0.00 | 0.23 | 0.14 | 99 | 1007.0 |
| 20260507083121 | 50 | 294 | 4.3 | 7.8 | 0.00 | 0.23 | 0.14 | 99 | 1007.2 |
| 20260507082121 | 50 | 315 | 4.3 | 7.8 | 0.00 | 0.23 | 0.14 | 99 | 1007.1 |
| 20260507081142 | 50 | 309 | 4.3 | 7.8 | 0.00 | 0.23 | 0.14 | 99 | 1007.2 |
| 20260507080122 | 51 | 352 | 3.5 | 7.0 | 0.01 | 0.23 | 0.14 | 99 | 1007.2 |
| 20260507075142 | 51 | 293 | 2.6 | 5.2 | 0.01 | 0.23 | 0.14 | 99 | 1007.4 |
| 20260507074142 | 51 | 321 | 2.6 | 7.0 | 0.04 | 0.23 | 0.14 | 99 | 1007.5 |
| 20260507073121 | 51 | 312 | 4.3 | 7.8 | 0.07 | 0.23 | 0.14 | 99 | 1007.2 |
| 20260507072142 | 51 | 320 | 3.5 | 7.8 | 0.10 | 0.23 | 0.14 | 99 | 1007.2 |
| 20260507071121 | 52 | 302 | 2.6 | 5.2 | 0.13 | 0.23 | 0.14 | 99 | 1007.1 |
| 20260507070125 | 52 | 296 | 3.5 | 6.1 | 0.13 | 0.22 | 0.13 | 99 | 1006.5 |
| 20260507065121 | 52 | 322 | 2.6 | 4.3 | 0.13 | 0.22 | 0.13 | 99 | 1006.5 |
| 20260507064124 | 53 | 321 | 2.6 | 5.2 | 0.10 | 0.19 | 0.10 | 99 | 1007.2 |
| 20260507063145 | 53 | 302 | 2.6 | 6.1 | 0.07 | 0.16 | 0.07 | 99 | 1006.8 |
| 20260507062121 | 53 | 273 | 2.6 | 4.3 | 0.04 | 0.13 | 0.04 | 99 | 1006.2 |
| 20260507061122 | 54 | 280 | 2.6 | 4.3 | 0.01 | 0.10 | 0.01 | 99 | 1006.8 |
| 20260507060122 | 55 | 292 | 2.6 | 6.1 | 0.00 | 0.09 | 0.00 | 97 | 1006.8 |
| 20260507055143 | 56 | 282 | 2.6 | 6.1 | 0.00 | 0.09 | 0.00 | 97 | 1006.8 |
| 20260507054123 | 56 | 310 | 1.7 | 3.5 | 0.00 | 0.09 | 0.00 | 99 | 1006.4 |
| 20260507053123 | 56 | 8 | 1.7 | 3.5 | 0.00 | 0.09 | 0.00 | 99 | 1006.2 |
| 20260507052121 | 56 | 303 | 1.7 | 5.2 | 0.00 | 0.09 | 0.00 | 99 | 1006.4 |
| 20260507051121 | 56 | 285 | 1.7 | 3.5 | 0.00 | 0.09 | 0.00 | 99 | 1006.5 |
| 20260507050142 | 56 | 281 | 1.7 | 4.3 | 0.00 | 0.09 | 0.00 | 99 | 1006.4 |
| 20260507045121 | 56 | 284 | 1.7 | 3.5 | 0.00 | 0.09 | 0.00 | 99 | 1006.4 |
| 20260507044142 | 56 | 285 | 1.7 | 3.5 | 0.00 | 0.09 | 0.00 | 99 | 1006.7 |
| 20260507043125 | 56 | 295 | 1.7 | 2.6 | 0.00 | 0.09 | 0.00 | 99 | 1007.0 |
| 20260507042123 | 56 | 294 | 1.7 | 3.5 | 0.00 | 0.09 | 0.00 | 99 | 1006.8 |
| 20260507041124 | 57 | 281 | 1.7 | 2.6 | 0.00 | 0.09 | 0.00 | 99 | 1006.9 |
| 20260507040121 | 57 | 295 | 1.7 | 5.2 | 0.00 | 0.09 | 0.00 | 99 | 1006.7 |
| 20260507035121 | 57 | 320 | 1.7 | 2.6 | 0.01 | 0.09 | 0.09 | 99 | 1006.7 |
| 20260507034145 | 57 | 288 | 2.6 | 4.3 | 0.01 | 0.09 | 0.09 | 99 | 1006.7 |
| 20260507033121 | 57 | 299 | 1.7 | 4.3 | 0.01 | 0.09 | 0.09 | 99 | 1006.6 |
| 20260507032142 | 57 | 280 | 3.5 | 6.1 | 0.01 | 0.09 | 0.09 | 99 | 1006.4 |